Location: Rotheul
(50.2849°N, 11.2349°E)
Time: 04:23:20
(UTC+01:00)

ISS - Visible Passes

Search period start: 16 November 2018 00:00
Search period end: 26 November 2018 00:00
Orbit: 402 x 408 km, 51.6° (Epoch: 16 November)

Date Brightness Start Highest point End Pass type
(mag) Time Alt. Az. Time Alt. Az. Time Alt. Az.
24 Nov -1.3 18:33:21 10° S 18:34:00 13° S 18:34:00 13° S visible
25 Nov -1.4 17:42:48 10° SSE 17:43:42 11° SE 17:44:10 11° SE visible
25 Nov -0.8 19:16:25 10° SW 19:16:50 13° SW 19:16:50 13° SW visible
